When you browse on this site, cookies collect data to enhance your experience and personalize the content and advertising you see.
Visit our Privacy Policy to learn more. By continuing to use the site, you agree to this use of cookies and data.
  • în România
  • Lista ţărilor
  • Pe 7 zile
  • Temperatura apei
  • Meteo pe hartă
  • Widget-uri
  • user-avatar
    Intrare

    Meteo pe oră la La Massana

    Astăzi, 8 Decembrie, Duminică

    Timp Temperatura Precipitaţii Vânt Presiune Umiditate
    00:00 +1°C° 0 mm 1 m/s 611 mmHg 75%
    01:00 +1°C° 0 mm 1 m/s 611 mmHg 75%
    02:00 +1°C° 0 mm 1 m/s 610 mmHg 74%
    03:00 +1°C° 0 mm 1 m/s 610 mmHg 74%
    04:00 +1°C° 0 mm 1 m/s 610 mmHg 72%
    05:00 +1°C° 0 mm 1 m/s 610 mmHg 70%
    06:00 +1°C° 0 mm 1 m/s 610 mmHg 68%
    07:00 +2°C° 0 mm 1 m/s 611 mmHg 66%
    08:00 +3°C° 0 mm 1 m/s 611 mmHg 64%
    09:00 +3°C° 0 mm 0 m/s 612 mmHg 62%
    10:00 +5°C° 0 mm 0 m/s 612 mmHg 62%
    11:00 +7°C° 0 mm 1 m/s 612 mmHg 61%
    12:00 +8°C° 0 mm 1 m/s 613 mmHg 61%
    13:00 +7°C° 0 mm 1 m/s 612 mmHg 66%
    14:00 +6°C° 0 mm 1 m/s 612 mmHg 72%
    15:00 +6°C° 0 mm 1 m/s 611 mmHg 78%
    16:00 +5°C° 0.1 mm 1 m/s 611 mmHg 81%
    17:00 +4°C° 0.1 mm 1 m/s 610 mmHg 84%
    18:00 +2°C° 0.1 mm 2 m/s 610 mmHg 87%
    19:00 +2°C° 0.2 mm 2 m/s 610 mmHg 89%
    20:00 +2°C° 0.2 mm 2 m/s 611 mmHg 91%
    21:00 +3°C° 0.2 mm 1 m/s 611 mmHg 93%
    22:00 +2°C° 0 mm 2 m/s 611 mmHg 92%
    23:00 +1°C° 0 mm 2 m/s 611 mmHg 91%

    Mâine, 9 Decembrie, Luni

    Timp Temperatura Precipitaţii Vânt Presiune Umiditate
    00:00 +1°C° 0 mm 2 m/s 611 mmHg 90%
    01:00 -1°C° 0 mm 2 m/s 610 mmHg 78%
    02:00 -2°C° 0 mm 2 m/s 610 mmHg 67%
    03:00 -2°C° 0 mm 2 m/s 609 mmHg 56%
    04:00 -3°C° 0 mm 2 m/s 609 mmHg 56%
    05:00 -3°C° 0 mm 2 m/s 609 mmHg 57%
    06:00 -3°C° 0 mm 2 m/s 609 mmHg 58%
    07:00 -2°C° 0.3 mm 3 m/s 610 mmHg 65%
    08:00 -2°C° 0.3 mm 3 m/s 610 mmHg 71%
    09:00 -2°C° 0.3 mm 4 m/s 610 mmHg 78%
    10:00 -2°C° 0.7 mm 4 m/s 610 mmHg 78%
    11:00 -2°C° 0.7 mm 4 m/s 611 mmHg 78%
    12:00 -2°C° 0.7 mm 4 m/s 611 mmHg 78%
    13:00 -2°C° 0.8 mm 4 m/s 611 mmHg 79%
    14:00 -2°C° 0.8 mm 4 m/s 610 mmHg 81%
    15:00 -3°C° 0.8 mm 4 m/s 610 mmHg 83%
    16:00 -3°C° 0.7 mm 4 m/s 610 mmHg 86%
    17:00 -4°C° 0.7 mm 4 m/s 611 mmHg 90%
    18:00 -4°C° 0.7 mm 4 m/s 611 mmHg 93%
    19:00 -5°C° 0.3 mm 4 m/s 611 mmHg 92%
    20:00 -5°C° 0.3 mm 4 m/s 611 mmHg 90%
    21:00 -5°C° 0.3 mm 4 m/s 612 mmHg 88%
    22:00 -5°C° 0.1 mm 4 m/s 612 mmHg 87%
    23:00 -5°C° 0.1 mm 4 m/s 612 mmHg 87%

    Poimâine, 10 Decembrie, Marţi

    Timp Temperatura Precipitaţii Vânt Presiune Umiditate
    00:00 -5°C° 0.1 mm 4 m/s 612 mmHg 86%
    01:00 -7°C° 0 mm 4 m/s 612 mmHg 86%
    02:00 -7°C° 0 mm 4 m/s 612 mmHg 85%
    03:00 -7°C° 0 mm 4 m/s 611 mmHg 84%
    04:00 -6°C° 0 mm 3 m/s 611 mmHg 79%
    05:00 -6°C° 0 mm 3 m/s 611 mmHg 74%
    06:00 -7°C° 0 mm 3 m/s 611 mmHg 70%
    07:00 -5°C° 0 mm 3 m/s 612 mmHg 64%
    08:00 -3°C° 0 mm 2 m/s 612 mmHg 58%
    09:00 -1°C° 0 mm 2 m/s 613 mmHg 52%
    10:00 +1°C° 0 mm 2 m/s 613 mmHg 53%
    11:00 +3°C° 0 mm 2 m/s 614 mmHg 54%
    12:00 +5°C° 0 mm 1 m/s 614 mmHg 54%
    13:00 +5°C° 0 mm 1 m/s 613 mmHg 57%
    14:00 +4°C° 0 mm 1 m/s 613 mmHg 60%
    15:00 +4°C° 0 mm 1 m/s 612 mmHg 63%
    16:00 +2°C° 0 mm 1 m/s 611 mmHg 58%
    17:00 -1°C° 0 mm 2 m/s 611 mmHg 53%
    18:00 -2°C° 0 mm 2 m/s 610 mmHg 49%
    19:00 -2°C° 0 mm 2 m/s 610 mmHg 47%
    20:00 -2°C° 0 mm 2 m/s 610 mmHg 45%
    21:00 -2°C° 0 mm 2 m/s 610 mmHg 44%
    22:00 -2°C° 0 mm 2 m/s 610 mmHg 44%
    23:00 -2°C° 0 mm 2 m/s 610 mmHg 45%

    11 Decembrie, Miercuri

    Timp Temperatura Precipitaţii Vânt Presiune Umiditate
    00:00 -2°C° 0 mm 2 m/s 610 mmHg 46%
    01:00 +1°C° 0 mm 1 m/s 610 mmHg 46%
    02:00 +1°C° 0 mm 1 m/s 609 mmHg 45%
    03:00 +1°C° 0 mm 1 m/s 609 mmHg 45%
    04:00 0°C° 0 mm 1 m/s 609 mmHg 47%
    05:00 0°C° 0 mm 1 m/s 609 mmHg 48%
    06:00 0°C° 0 mm 1 m/s 608 mmHg 50%
    07:00 +1°C° 0 mm 1 m/s 609 mmHg 55%
    08:00 +2°C° 0 mm 1 m/s 609 mmHg 59%
    09:00 +2°C° 0 mm 1 m/s 610 mmHg 64%
    10:00 +3°C° 0.1 mm 1 m/s 610 mmHg 67%
    11:00 +2°C° 0.1 mm 2 m/s 610 mmHg 70%
    12:00 +2°C° 0.1 mm 2 m/s 610 mmHg 73%
    13:00 +2°C° 0.4 mm 2 m/s 610 mmHg 77%
    14:00 +1°C° 0.4 mm 2 m/s 610 mmHg 81%
    15:00 +1°C° 0.4 mm 2 m/s 609 mmHg 85%
    16:00 -2°C° 0.1 mm 2 m/s 609 mmHg 88%
    17:00 -3°C° 0.1 mm 2 m/s 609 mmHg 90%
    18:00 -4°C° 0.1 mm 2 m/s 609 mmHg 93%
    19:00 -5°C° 0 mm 2 m/s 609 mmHg 92%
    20:00 -6°C° 0 mm 2 m/s 609 mmHg 91%
    21:00 -6°C° 0 mm 2 m/s 609 mmHg 90%
    22:00 -7°C° 0 mm 2 m/s 608 mmHg 86%
    23:00 -7°C° 0 mm 2 m/s 608 mmHg 81%

    12 Decembrie, Joi

    Timp Temperatura Precipitaţii Vânt Presiune Umiditate
    00:00 -7°C° 0 mm 2 m/s 608 mmHg 77%
    01:00 -6°C° 0.1 mm 2 m/s 608 mmHg 80%
    02:00 -6°C° 0.1 mm 2 m/s 608 mmHg 82%
    03:00 -5°C° 0.1 mm 2 m/s 608 mmHg 85%
    04:00 -5°C° 0.2 mm 2 m/s 608 mmHg 86%
    05:00 -5°C° 0.2 mm 2 m/s 608 mmHg 88%
    06:00 -5°C° 0.2 mm 2 m/s 608 mmHg 90%
    07:00 -4°C° 0.3 mm 2 m/s 609 mmHg 87%
    08:00 -1°C° 0.3 mm 1 m/s 609 mmHg 84%
    09:00 0°C° 0.3 mm 1 m/s 610 mmHg 82%
    10:00 +1°C° 0 mm 1 m/s 610 mmHg 78%
    11:00 +2°C° 0 mm 1 m/s 610 mmHg 74%
    12:00 +2°C° 0 mm 1 m/s 610 mmHg 71%
    13:00 +2°C° 0 mm 1 m/s 610 mmHg 73%
    14:00 +2°C° 0 mm 1 m/s 609 mmHg 76%
    15:00 +1°C° 0 mm 1 m/s 609 mmHg 78%
    16:00 0°C° 0 mm 1 m/s 608 mmHg 82%
    17:00 -1°C° 0 mm 1 m/s 607 mmHg 86%
    18:00 -3°C° 0 mm 1 m/s 607 mmHg 90%
    19:00 -3°C° 0 mm 1 m/s 606 mmHg 89%
    20:00 -3°C° 0 mm 1 m/s 606 mmHg 88%
    21:00 -3°C° 0 mm 1 m/s 606 mmHg 86%
    22:00 -2°C° 0.1 mm 1 m/s 606 mmHg 85%
    23:00 -2°C° 0.1 mm 1 m/s 606 mmHg 84%

    13 Decembrie, Vineri

    Timp Temperatura Precipitaţii Vânt Presiune Umiditate
    00:00 -1°C° 0.1 mm 1 m/s 606 mmHg 83%
    01:00 -1°C° 1.1 mm 1 m/s 606 mmHg 87%
    02:00 0°C° 1.1 mm 1 m/s 606 mmHg 90%
    03:00 +1°C° 1.1 mm 1 m/s 606 mmHg 94%
    04:00 +1°C° 0.5 mm 1 m/s 606 mmHg 94%
    05:00 +1°C° 0.5 mm 1 m/s 606 mmHg 95%
    06:00 +2°C° 0.5 mm 1 m/s 606 mmHg 96%
    07:00 +2°C° 0.2 mm 1 m/s 606 mmHg 95%
    08:00 +3°C° 0.2 mm 1 m/s 607 mmHg 94%
    09:00 +3°C° 0.2 mm 1 m/s 607 mmHg 94%
    10:00 +4°C° 0.6 mm 1 m/s 607 mmHg 94%
    11:00 +4°C° 0.6 mm 1 m/s 607 mmHg 94%
    12:00 +4°C° 0.6 mm 1 m/s 607 mmHg 93%
    13:00 +4°C° 0.4 mm 1 m/s 607 mmHg 94%
    14:00 +4°C° 0.4 mm 1 m/s 607 mmHg 95%
    15:00 +4°C° 0.4 mm 1 m/s 607 mmHg 96%
    16:00 +3°C° 0.2 mm 1 m/s 607 mmHg 96%
    17:00 +3°C° 0.2 mm 1 m/s 607 mmHg 96%
    18:00 +3°C° 0.2 mm 1 m/s 607 mmHg 96%
    19:00 +3°C° 0 mm 1 m/s 607 mmHg 95%
    20:00 +2°C° 0 mm 1 m/s 607 mmHg 95%
    21:00 +2°C° 0 mm 1 m/s 607 mmHg 94%
    22:00 +2°C° 0 mm 1 m/s 607 mmHg 92%
    23:00 +2°C° 0 mm 1 m/s 607 mmHg 91%
    Arată mai mult